Вернуться в каталог

CALSPHERE 1

АктивенНаукаPO
NORAD 900·PAYLOAD·🇺🇸 United States

Запущен Oct 6, 1964 с Vandenberg Space Force Base

Loading…

Ближайшие Пролёты (ближайшие 24 часа)

TLE

СвежийSource: Space-Track

Эпоха: Sep 14, 2026, 11:42 UTC

1 00900U 64063C   26257.48799447  .00000447  00000-0  44475-3 0  9994
2 00900  90.2176  73.8381 0026728  26.2035   2.7230 13.76703763 83715

Отслеживайте CALSPHERE 1 в реальном времени с AllMySat

Download on the App Store